Location: Newark
(15.4608°S, 41.1635°W)
Time: 00:12:13
(UTC+00:00)

N. Korean satellite - Pass Details

Date: 22 June 2021
Orbit: 451 x 498 km, 97.2° (Epoch: 30 July)

Event Time Altitude Azimuth Distance (km) Brightness Sun altitude
Rises 06:57:57 0° 35° (NE) 2,573 11.0 -30.7°
Reaches altitude 10° 07:00:18 10° 49° (NE) 1,698 10.1 -30.1°
Enters shadow 07:03:07 23° 99° (E) 1,086 8.8 -29.5°
